This is the latest recevied weather packets stored in our database for station/object XE2VP-WX. If no packets are shown the sender has not sent any weather packets the latest 1 day(s).
| Time | Temp. | Humidity | Pressure | Rain* | Wind** | Luminosity | Snow |
|---|---|---|---|---|---|---|---|
| 1777999523 | 28.89° C | 48% | 939.8 hPa | 0 mm | 0.89 m/s, 0° | 891 W/m² | - |
| 1777999462 | 28.89° C | 48% | 939.8 hPa | 0 mm | 0.89 m/s, 156° | 883 W/m² | - |
| 1777999402 | 28.89° C | 48% | 939.8 hPa | 0 mm | 0.89 m/s, 131° | 886 W/m² | - |
| 1777999338 | 28.89° C | 49% | 939.8 hPa | 0 mm | 0.89 m/s, 148° | 876 W/m² | - |
| 1777999278 | 28.89° C | 48% | 939.8 hPa | 0 mm | 0.89 m/s, 184° | 881 W/m² | - |
| 1777999218 | 28.89° C | 47% | 939.8 hPa | 0 mm | 0.89 m/s, 154° | 878 W/m² | - |
| 1777999158 | 28.89° C | 47% | 939.8 hPa | 0 mm | 0.89 m/s, 122° | 878 W/m² | - |
| 1777999098 | 28.89° C | 48% | 939.9 hPa | 0 mm | 0.89 m/s, 169° | 871 W/m² | - |
| 1777999036 | 28.33° C | 49% | 939.9 hPa | 0 mm | 0.89 m/s, 262° | 865 W/m² | - |
| 1777998976 | 28.33° C | 49% | 939.9 hPa | 0 mm | 0.89 m/s, 325° | 859 W/m² | - |
| 1777998916 | 28.33° C | 50% | 939.9 hPa | 0 mm | 0.89 m/s, 40° | 859 W/m² | - |
| 1777998856 | 28.33° C | 50% | 939.9 hPa | 0 mm | 0.89 m/s, 124° | 858 W/m² | - |
| 1777998796 | 28.33° C | 50% | 939.9 hPa | 0 mm | 0.89 m/s, 57° | 846 W/m² | - |
| 1777998737 | 28.33° C | 50% | 939.9 hPa | 0 mm | 0.89 m/s, 23° | 827 W/m² | - |
| 1777998676 | 28.33° C | 50% | 939.9 hPa | 0 mm | 0.89 m/s, 5° | 836 W/m² | - |
| 1777998616 | 28.33° C | 50% | 939.9 hPa | 0 mm | 0.89 m/s, 75° | 832 W/m² | - |
| 1777998557 | 28.33° C | 49% | 939.9 hPa | 0 mm | 0.89 m/s, 35° | 835 W/m² | - |
| 1777998496 | 28.33° C | 49% | 939.9 hPa | 0 mm | 0.45 m/s, 4° | 832 W/m² | - |
| 1777998436 | 28.33° C | 49% | 940 hPa | 0 mm | 0.89 m/s, 338° | 830 W/m² | - |
| 1777998376 | 27.78° C | 49% | 940 hPa | 0 mm | 0.89 m/s, 0° | 829 W/m² | - |
| 1777998325 | 27.78° C | 50% | 940 hPa | 0 mm | 0.89 m/s, 137° | 826 W/m² | - |
| 1777998257 | 27.78° C | 50% | 940 hPa | 0 mm | 0.89 m/s, 112° | 818 W/m² | - |
| 1777998196 | 27.78° C | 50% | 940 hPa | 0 mm | 0.89 m/s, 79° | 818 W/m² | - |
| 1777998136 | 27.78° C | 50% | 940.1 hPa | 0 mm | 0.89 m/s, 0° | 815 W/m² | - |
| 1777998077 | 27.78° C | 50% | 940 hPa | 0 mm | 0.89 m/s, 32° | 810 W/m² | - |
* Rain latest hour (hover to see other rain measurements)
** Current wind speed in m/s (hover to see current wind gust speed)